This is the latest recevied weather packets stored in our database for station/object DB0LHR-6. If no packets are shown the sender has not sent any weather packets the latest 1 day(s).
| Time | Temp. | Humidity | Pressure | Rain* | Wind** | Luminosity | Snow |
|---|---|---|---|---|---|---|---|
| 1778078776 | 12.78° C | 86% | 1008 hPa | 0 mm | - | - | - |
| 1778077876 | 12.78° C | 82% | 1008 hPa | 0 mm | - | - | - |
| 1778076976 | 12.78° C | 78% | 1008 hPa | 0 mm | - | - | - |
| 1778076076 | 13.33° C | 74% | 1007 hPa | 0 mm | - | - | - |
| 1778075176 | 13.89° C | 76% | 1007 hPa | 0 mm | - | - | - |
| 1778074276 | 13.89° C | 78% | 1007 hPa | 0 mm | - | - | - |
| 1778073376 | 14.44° C | 81% | 1007 hPa | 0 mm | - | - | - |
| 1778072476 | 14.44° C | 78% | 1007 hPa | 0 mm | - | - | - |
| 1778071576 | 15° C | 71% | 1007 hPa | 0 mm | - | - | - |
| 1778070676 | 15.56° C | 70% | 1007 hPa | 0 mm | - | - | - |
| 1778069776 | 16.11° C | 70% | 1007 hPa | 0 mm | - | - | - |
| 1778068876 | 16.67° C | 63% | 1006 hPa | 0 mm | - | - | - |
| 1778067976 | 16.67° C | 60% | 1006 hPa | 0 mm | - | - | - |
| 1778067076 | 17.78° C | 56% | 1006 hPa | 0 mm | - | - | - |
| 1778066176 | 17.78° C | 55% | 1006 hPa | 0 mm | - | - | - |
| 1778065276 | 17.78° C | 53% | 1007 hPa | 0 mm | - | - | - |
| 1778064376 | 17.78° C | 55% | 1007 hPa | 0 mm | - | - | - |
| 1778063476 | 17.78° C | 55% | 1006 hPa | 0 mm | - | - | - |
| 1778062576 | 18.33° C | 52% | 1007 hPa | 0 mm | - | - | - |
| 1778061676 | 18.33° C | 50% | 1007 hPa | 0 mm | - | - | - |
| 1778060776 | 17.78° C | 54% | 1007 hPa | 0 mm | - | - | - |
| 1778059876 | 17.78° C | 54% | 1007 hPa | 0 mm | - | - | - |
| 1778058976 | 18.33° C | 53% | 1007 hPa | 0 mm | - | - | - |
| 1778058076 | 18.33° C | 52% | 1006 hPa | 0 mm | - | - | - |
| 1778057176 | 18.33° C | 51% | 1006 hPa | 0 mm | - | - | - |
* Rain latest 24 hours (hover to see other rain measurements)
** Current wind speed in m/s (hover to see current wind gust speed)